Torna al catalogo

STARLINK-4165

AttivoComunicazioniVLEO
NORAD 53286·PAYLOAD·🇺🇸 United States

Lanciato Jul 24, 2022 da Cape Canaveral Space Force Station

Loading…

Prossimi Passaggi (prossime 24 ore)

TLE

AggiornatoSource: CelesTrak SupGP

Epoca: Sep 14, 2026, 14:41 UTC

1 53286C 22086AW  26257.61229167 -.00029441  00000+0 -94698-3 0  2575
2 53286  53.1586  43.2719 0001131  91.0518 173.6339 15.31709125    17

Traccia STARLINK-4165 in tempo reale con AllMySat

Download on the App Store